This is the latest recevied weather packets stored in our database for station/object EA3FHP. If no packets are shown the sender has not sent any weather packets the latest 10 day(s).
| Time | Temp. | Humidity | Pressure | Rain* | Wind** | Luminosity | Snow |
|---|---|---|---|---|---|---|---|
| 1777702203 | 11.67° C | 83% | 1024.8 hPa | 0 mm | - | - | - |
| 1777701603 | 12.22° C | 83% | 1025 hPa | 0 mm | - | - | - |
| 1777701003 | 12.22° C | 83% | 1024.7 hPa | 0 mm | - | - | - |
| 1777700406 | 11.67° C | 83% | 1024.6 hPa | 0 mm | - | - | - |
| 1777699804 | 11.67° C | 83% | 1024.5 hPa | 0 mm | - | - | - |
| 1777669203 | 12.22° C | 78% | 1025.6 hPa | 0 mm | - | - | - |
| 1777668603 | 12.22° C | 77% | 1025.8 hPa | 0 mm | - | - | - |
| 1777668003 | 12.78° C | 76% | 1025.8 hPa | 0 mm | - | - | - |
| 1777667403 | 12.78° C | 78% | 1025.5 hPa | 0 mm | - | - | - |
| 1777666803 | 12.78° C | 75% | 1025.6 hPa | 0 mm | - | - | - |
| 1777666203 | 13.33° C | 76% | 1025.4 hPa | 0 mm | - | - | - |
| 1777665604 | 13.33° C | 75% | 1024.9 hPa | 0 mm | - | - | - |
| 1777665003 | 13.89° C | 75% | 1024.9 hPa | 0 mm | - | - | - |
| 1777664403 | 14.44° C | 71% | 1024.9 hPa | 0 mm | - | - | - |
| 1777663803 | 13.89° C | 72% | 1025 hPa | 0 mm | - | - | - |
| 1777663203 | 13.89° C | 73% | 1025 hPa | 0 mm | - | - | - |
| 1777662603 | 14.44° C | 71% | 1024.6 hPa | 0 mm | - | - | - |
| 1777662003 | 15° C | 69% | 1024.4 hPa | 0 mm | - | - | - |
| 1777661403 | 15° C | 69% | 1024.3 hPa | 0 mm | - | - | - |
| 1777660803 | 15.56° C | 67% | 1024.2 hPa | 0 mm | - | - | - |
| 1777660204 | 16.11° C | 68% | 1024.3 hPa | 0 mm | - | - | - |
| 1777659603 | 16.67° C | 65% | 1024.2 hPa | 0 mm | - | - | - |
| 1777659004 | 16.67° C | 65% | 1024 hPa | 0 mm | - | - | - |
| 1777658404 | 16.67° C | 65% | 1023.8 hPa | 0 mm | - | - | - |
| 1777657803 | 16.67° C | 65% | 1023.9 hPa | 0 mm | - | - | - |
* Rain latest hour (hover to see other rain measurements)
** Current wind speed in m/s (hover to see current wind gust speed)